Time,TemperatureF,DewpointF,PressureIn,WindDirection,WindDirectionDegrees,WindSpeedMPH,WindSpeedGustMPH,Humidity,HourlyPrecipIn,Conditions,Clouds,dailyrainin,SoftwareType,DateUTC
2013-06-26 00:01:00,60.9,46.9,29.85,East,99,4.0,4.0,60,0.00,,,0.00,Wunderground v.1.15,2013-06-26 07:01:00,
2013-06-26 00:07:00,60.9,46.9,29.85,East,89,7.0,9.0,60,0.00,,,0.00,Wunderground v.1.15,2013-06-26 07:07:00,
2013-06-26 00:12:00,61.0,47.0,29.85,East,93,6.0,7.0,60,0.00,,,0.00,Wunderground v.1.15,2013-06-26 07:12:00,
2013-06-26 00:18:00,61.2,47.2,29.85,East,97,6.0,8.0,60,0.00,,,0.00,Wunderground v.1.15,2013-06-26 07:18:00,
2013-06-26 00:23:00,61.2,47.2,29.85,East,97,0.0,5.0,60,0.00,,,0.00,Wunderground v.1.15,2013-06-26 07:23:00,
2013-06-26 00:29:00,61.2,47.6,29.85,East,100,0.0,8.0,61,0.00,,,0.00,Wunderground v.1.15,2013-06-26 07:29:00,
2013-06-26 00:35:00,61.0,47.4,29.85,ESE,102,0.0,7.0,61,0.00,,,0.00,Wunderground v.1.15,2013-06-26 07:35:00,
2013-06-26 00:40:00,60.9,47.8,29.85,East,99,0.0,2.0,62,0.00,,,0.00,Wunderground v.1.15,2013-06-26 07:40:00,
2013-06-26 00:46:00,60.7,47.6,29.85,ESE,114,0.0,4.0,62,0.00,,,0.00,Wunderground v.1.15,2013-06-26 07:46:00,
2013-06-26 00:51:00,60.4,47.3,29.85,ESE,114,0.0,1.0,62,0.00,,,0.00,Wunderground v.1.15,2013-06-26 07:51:00,
2013-06-26 00:57:00,60.1,47.5,29.85,SE,130,0.0,1.0,63,0.00,,,0.00,Wunderground v.1.15,2013-06-26 07:57:00,
2013-06-26 01:02:00,59.6,47.4,29.85,SSE,157,0.0,0.0,64,0.00,,,0.00,Wunderground v.1.15,2013-06-26 08:02:00,
2013-06-26 01:08:00,59.0,47.2,29.85,East,95,2.0,7.0,65,0.00,,,0.00,Wunderground v.1.15,2013-06-26 08:08:00,
2013-06-26 01:13:00,58.9,47.6,29.85,ESE,109,4.0,8.0,66,0.00,,,0.00,Wunderground v.1.15,2013-06-26 08:13:00,
2013-06-26 01:19:00,59.0,47.7,29.84,ESE,102,0.0,8.0,66,0.00,,,0.00,Wunderground v.1.15,2013-06-26 08:19:00,
2013-06-26 01:25:00,59.2,47.4,29.84,East,99,1.0,4.0,65,0.00,,,0.00,Wunderground v.1.15,2013-06-26 08:25:00,
2013-06-26 01:30:00,59.3,47.5,29.84,East,99,0.0,2.0,65,0.00,,,0.00,Wunderground v.1.15,2013-06-26 08:30:00,
2013-06-26 01:36:00,59.3,47.5,29.84,East,99,1.0,2.0,65,0.00,,,0.00,Wunderground v.1.15,2013-06-26 08:36:00,
2013-06-26 01:41:00,59.3,47.5,29.84,ENE,58,0.0,0.0,65,0.00,,,0.00,Wunderground v.1.15,2013-06-26 08:41:00,
2013-06-26 01:47:00,58.9,47.6,29.84,ENE,58,0.0,0.0,66,0.00,,,0.00,Wunderground v.1.15,2013-06-26 08:47:00,
2013-06-26 01:52:00,58.1,47.2,29.84,ENE,58,0.0,0.0,67,0.00,,,0.00,Wunderground v.1.15,2013-06-26 08:52:00,
2013-06-26 01:58:00,57.5,47.0,29.84,ENE,58,0.0,0.0,68,0.00,,,0.00,Wunderground v.1.15,2013-06-26 08:58:00,
2013-06-26 02:03:00,57.0,46.9,29.84,East,89,1.0,7.0,69,0.00,,,0.00,Wunderground v.1.15,2013-06-26 09:03:00,
2013-06-26 02:09:00,56.7,47.4,29.84,East,95,0.0,8.0,71,0.00,,,0.00,Wunderground v.1.15,2013-06-26 09:09:00,
2013-06-26 02:14:00,56.9,47.6,29.84,ESE,116,6.0,8.0,71,0.00,,,0.00,Wunderground v.1.15,2013-06-26 09:14:00,
2013-06-26 02:19:00,57.3,47.6,29.86,ESE,114,8.0,8.0,70,0.00,,,0.00,Wunderground v.1.15,2013-06-26 09:19:00,
2013-06-26 02:24:00,57.8,47.7,29.86,ESE,114,7.0,8.0,69,0.00,,,0.00,Wunderground v.1.15,2013-06-26 09:24:00,
2013-06-26 02:29:00,58.1,47.6,29.86,East,100,7.0,9.0,68,0.00,,,0.00,Wunderground v.1.15,2013-06-26 09:29:00,
2013-06-26 02:34:00,58.6,47.7,29.86,ESE,104,7.0,8.0,67,0.00,,,0.00,Wunderground v.1.15,2013-06-26 09:34:00,
2013-06-26 02:39:00,58.7,47.8,29.86,East,99,1.0,8.0,67,0.00,,,0.00,Wunderground v.1.15,2013-06-26 09:39:00,
2013-06-26 02:44:00,58.9,47.6,29.85,ESE,109,4.0,9.0,66,0.00,,,0.00,Wunderground v.1.15,2013-06-26 09:44:00,
2013-06-26 02:49:00,59.0,47.7,29.85,ESE,114,2.0,9.0,66,0.00,,,0.00,Wunderground v.1.15,2013-06-26 09:49:00,
2013-06-26 02:54:00,59.2,47.4,29.85,ESE,112,1.0,7.0,65,0.00,,,0.00,Wunderground v.1.15,2013-06-26 09:54:00,
2013-06-26 02:59:00,59.2,47.4,29.85,East,99,0.0,7.0,65,0.00,,,0.00,Wunderground v.1.15,2013-06-26 09:59:00,
2013-06-26 03:04:00,59.2,47.4,29.85,ESE,102,7.0,7.0,65,0.00,,,0.00,Wunderground v.1.15,2013-06-26 10:04:00,
2013-06-26 03:09:00,59.3,47.5,29.85,East,96,6.0,9.0,65,0.00,,,0.00,Wunderground v.1.15,2013-06-26 10:09:00,
2013-06-26 03:14:00,59.3,47.5,29.86,SSE,157,10.0,10.0,65,0.00,,,0.00,Wunderground v.1.15,2013-06-26 10:14:00,
2013-06-26 03:19:00,59.8,47.6,29.86,SE,136,1.0,4.0,64,0.00,,,0.00,Wunderground v.1.15,2013-06-26 10:19:00,
2013-06-26 03:25:00,59.9,47.7,29.86,SE,126,0.0,4.0,64,0.00,,,0.00,Wunderground v.1.15,2013-06-26 10:25:00,
2013-06-26 03:30:00,59.8,47.6,29.86,SE,126,1.0,2.0,64,0.00,,,0.00,Wunderground v.1.15,2013-06-26 10:30:00,
2013-06-26 03:35:00,59.5,47.7,29.86,SE,130,4.0,4.0,65,0.00,,,0.00,Wunderground v.1.15,2013-06-26 10:35:00,
2013-06-26 03:40:00,59.3,47.5,29.86,ESE,113,2.0,4.0,65,0.00,,,0.00,Wunderground v.1.15,2013-06-26 10:40:00,
2013-06-26 03:45:00,59.2,47.4,29.87,ESE,103,1.0,6.0,65,0.00,,,0.00,Wunderground v.1.15,2013-06-26 10:45:00,
2013-06-26 03:50:00,59.0,47.7,29.87,ESE,119,1.0,6.0,66,0.00,,,0.00,Wunderground v.1.15,2013-06-26 10:50:00,
2013-06-26 03:55:00,59.0,47.2,29.87,ESE,102,2.0,7.0,65,0.00,,,0.00,Wunderground v.1.15,2013-06-26 10:55:00,
2013-06-26 04:01:00,59.0,47.2,29.87,ESE,102,0.0,2.0,65,0.00,,,0.00,Wunderground v.1.15,2013-06-26 11:01:00,
2013-06-26 04:06:00,58.9,47.6,29.87,ESE,102,2.0,4.0,66,0.00,,,0.00,Wunderground v.1.15,2013-06-26 11:06:00,
2013-06-26 04:11:00,58.7,47.4,29.87,SE,131,1.0,4.0,66,0.00,,,0.00,Wunderground v.1.15,2013-06-26 11:11:00,
2013-06-26 04:16:00,58.4,47.5,29.87,ESE,112,2.0,4.0,67,0.00,,,0.00,Wunderground v.1.15,2013-06-26 11:16:00,
2013-06-26 04:21:00,58.1,47.2,29.87,ESE,110,0.0,4.0,67,0.00,,,0.00,Wunderground v.1.15,2013-06-26 11:21:00,
2013-06-26 04:26:00,58.1,47.6,29.87,SE,124,6.0,7.0,68,0.00,,,0.00,Wunderground v.1.15,2013-06-26 11:26:00,
2013-06-26 04:31:00,58.1,47.2,29.87,SE,124,6.0,9.0,67,0.00,,,0.00,Wunderground v.1.15,2013-06-26 11:31:00,
2013-06-26 04:36:00,58.6,46.9,29.87,SE,133,9.0,10.0,65,0.00,,,0.00,Wunderground v.1.15,2013-06-26 11:36:00,
2013-06-26 04:41:00,59.2,47.4,29.87,ESE,116,6.0,9.0,65,0.00,,,0.00,Wunderground v.1.15,2013-06-26 11:41:00,
2013-06-26 04:46:00,59.6,47.4,29.86,ESE,120,6.0,9.0,64,0.00,,,0.00,Wunderground v.1.15,2013-06-26 11:46:00,
2013-06-26 04:51:00,59.6,47.8,29.86,ESE,107,4.0,7.0,65,0.00,,,0.00,Wunderground v.1.15,2013-06-26 11:51:00,
2013-06-26 04:56:00,59.5,47.3,29.86,ESE,116,1.0,7.0,64,0.00,,,0.00,Wunderground v.1.15,2013-06-26 11:56:00,
2013-06-26 05:01:00,58.9,47.6,29.88,ESE,123,0.0,4.0,66,0.00,,,0.00,Wunderground v.1.15,2013-06-26 12:01:00,
2013-06-26 05:06:00,58.3,47.0,29.88,ESE,106,2.0,7.0,66,0.00,,,0.00,Wunderground v.1.15,2013-06-26 12:06:00,
2013-06-26 05:11:00,57.5,46.6,29.88,South,181,0.0,1.0,67,0.00,,,0.00,Wunderground v.1.15,2013-06-26 12:11:00,
2013-06-26 05:16:00,56.5,46.4,29.89,West,268,0.0,2.0,69,0.00,,,0.00,Wunderground v.1.15,2013-06-26 12:16:00,
2013-06-26 05:21:00,55.7,46.4,29.89,WSW,246,0.0,0.0,71,0.00,,,0.00,Wunderground v.1.15,2013-06-26 12:21:00,
2013-06-26 05:26:00,55.0,46.1,29.89,WSW,246,0.0,1.0,72,0.00,,,0.00,Wunderground v.1.15,2013-06-26 12:26:00,
2013-06-26 05:31:00,54.5,46.0,29.90,WSW,246,0.0,0.0,73,0.00,,,0.00,Wunderground v.1.15,2013-06-26 12:31:00,
2013-06-26 05:36:00,54.2,46.1,29.90,WSW,246,0.0,2.0,74,0.00,,,0.00,Wunderground v.1.15,2013-06-26 12:36:00,
2013-06-26 05:41:00,54.1,46.0,29.90,WSW,246,0.0,0.0,74,0.00,,,0.00,Wunderground v.1.15,2013-06-26 12:41:00,
2013-06-26 05:46:00,53.8,46.1,29.91,WSW,246,0.0,1.0,75,0.00,,,0.00,Wunderground v.1.15,2013-06-26 12:46:00,
2013-06-26 05:51:00,53.5,45.8,29.91,WSW,246,0.0,0.0,75,0.00,,,0.00,Wunderground v.1.15,2013-06-26 12:51:00,
2013-06-26 05:56:00,53.3,45.9,29.91,WSW,246,0.0,0.0,76,0.00,,,0.00,Wunderground v.1.15,2013-06-26 12:56:00,
2013-06-26 06:01:00,53.5,45.8,29.91,WSW,246,0.0,0.0,75,0.00,,,0.00,Wunderground v.1.15,2013-06-26 13:01:00,
2013-06-26 06:06:00,53.8,45.7,29.91,WSW,246,0.0,0.0,74,0.00,,,0.00,Wunderground v.1.15,2013-06-26 13:06:00,
2013-06-26 06:11:00,54.1,46.0,29.91,WSW,246,0.0,0.0,74,0.00,,,0.00,Wunderground v.1.15,2013-06-26 13:11:00,
2013-06-26 06:16:00,54.7,45.8,29.92,WSW,246,0.0,0.0,72,0.00,,,0.00,Wunderground v.1.15,2013-06-26 13:16:00,
2013-06-26 06:21:00,55.3,45.7,29.92,WSW,246,0.0,0.0,70,0.00,,,0.00,Wunderground v.1.15,2013-06-26 13:21:00,
2013-06-26 06:26:00,55.9,45.5,29.92,WSW,246,0.0,0.0,68,0.00,,,0.00,Wunderground v.1.15,2013-06-26 13:26:00,
2013-06-26 06:31:00,56.2,46.2,29.92,SE,138,0.0,0.0,69,0.00,,,0.00,Wunderground v.1.15,2013-06-26 13:31:00,
2013-06-26 06:36:00,56.6,46.2,29.92,SE,141,0.0,0.0,68,0.00,,,0.00,Wunderground v.1.15,2013-06-26 13:36:00,
2013-06-26 06:41:00,57.0,46.5,29.92,SE,138,0.0,0.0,68,0.00,,,0.00,Wunderground v.1.15,2013-06-26 13:41:00,
2013-06-26 06:46:00,57.8,47.3,29.91,SE,137,0.0,2.0,68,0.00,,,0.00,Wunderground v.1.15,2013-06-26 13:46:00,
2013-06-26 06:51:00,58.4,47.5,29.91,SE,137,0.0,0.0,67,0.00,,,0.00,Wunderground v.1.15,2013-06-26 13:51:00,
2013-06-26 06:56:00,59.3,47.9,29.91,SE,137,0.0,1.0,66,0.00,,,0.00,Wunderground v.1.15,2013-06-26 13:56:00,
2013-06-26 07:01:00,59.9,48.1,29.91,SE,137,0.0,0.0,65,0.00,,,0.00,Wunderground v.1.15,2013-06-26 14:01:00,
2013-06-26 07:06:00,61.0,49.1,29.91,SE,137,0.0,0.0,65,0.00,,,0.00,Wunderground v.1.15,2013-06-26 14:06:00,
2013-06-26 07:11:00,62.7,48.6,29.91,SE,137,0.0,0.0,60,0.00,,,0.00,Wunderground v.1.15,2013-06-26 14:11:00,
2013-06-26 07:16:00,63.9,48.8,29.90,SE,137,0.0,0.0,58,0.00,,,0.00,Wunderground v.1.15,2013-06-26 14:16:00,
2013-06-26 07:17:00,63.9,48.8,29.90,SE,137,0.0,0.0,58,0.00,,,0.00,Wunderground v.1.15,2013-06-26 14:17:00,
2013-06-26 07:22:00,64.7,48.6,29.90,WSW,240,1.0,1.0,56,0.00,,,0.00,Wunderground v.1.15,2013-06-26 14:22:00,
2013-06-26 07:27:00,65.3,48.7,29.90,WSW,251,0.0,2.0,55,0.00,,,0.00,Wunderground v.1.15,2013-06-26 14:27:00,
2013-06-26 07:32:00,65.8,48.2,29.89,West,270,0.0,1.0,53,0.00,,,0.00,Wunderground v.1.15,2013-06-26 14:32:00,
2013-06-26 07:37:00,66.3,48.1,29.89,West,275,2.0,2.0,52,0.00,,,0.00,Wunderground v.1.15,2013-06-26 14:37:00,
2013-06-26 07:42:00,66.3,48.1,29.89,NW,312,1.0,4.0,52,0.00,,,0.00,Wunderground v.1.15,2013-06-26 14:42:00,
2013-06-26 07:47:00,66.6,48.4,29.90,West,265,2.0,4.0,52,0.00,,,0.00,Wunderground v.1.15,2013-06-26 14:47:00,
2013-06-26 07:52:00,66.8,47.6,29.90,NW,308,0.0,6.0,50,0.00,,,0.00,Wunderground v.1.15,2013-06-26 14:52:00,
2013-06-26 07:57:00,67.4,48.6,29.90,WNW,296,1.0,6.0,51,0.00,,,0.00,Wunderground v.1.15,2013-06-26 14:57:00,
2013-06-26 08:02:00,67.9,49.1,29.89,WSW,253,0.0,4.0,51,0.00,,,0.00,Wunderground v.1.15,2013-06-26 15:02:00,
2013-06-26 08:07:00,68.3,49.5,29.89,NW,312,2.0,4.0,51,0.00,,,0.00,Wunderground v.1.15,2013-06-26 15:07:00,
2013-06-26 08:12:00,68.4,49.0,29.89,North,357,2.0,6.0,50,0.00,,,0.00,Wunderground v.1.15,2013-06-26 15:12:00,
2013-06-26 08:17:00,68.9,48.9,29.89,NNW,329,1.0,6.0,49,0.00,,,0.00,Wunderground v.1.15,2013-06-26 15:17:00,
2013-06-26 08:22:00,69.3,48.8,29.89,North,0,1.0,6.0,48,0.00,,,0.00,Wunderground v.1.15,2013-06-26 15:22:00,
2013-06-26 08:27:00,69.6,49.0,29.89,North,3,0.0,6.0,48,0.00,,,0.00,Wunderground v.1.15,2013-06-26 15:27:00,
2013-06-26 08:32:00,69.9,49.9,29.89,NE,35,0.0,6.0,49,0.00,,,0.00,Wunderground v.1.15,2013-06-26 15:32:00,
2013-06-26 08:37:00,70.1,50.6,29.89,NE,34,0.0,7.0,50,0.00,,,0.00,Wunderground v.1.15,2013-06-26 15:37:00,
2013-06-26 08:42:00,70.3,51.3,29.89,NNW,339,4.0,6.0,51,0.00,,,0.00,Wunderground v.1.15,2013-06-26 15:42:00,
2013-06-26 08:47:00,70.4,50.3,29.89,North,0,2.0,7.0,49,0.00,,,0.00,Wunderground v.1.15,2013-06-26 15:47:00,
2013-06-26 08:52:00,70.6,51.1,29.89,North,357,0.0,6.0,50,0.00,,,0.00,Wunderground v.1.15,2013-06-26 15:52:00,
2013-06-26 08:57:00,70.9,47.9,29.89,North,0,1.0,7.0,44,0.00,,,0.00,Wunderground v.1.15,2013-06-26 15:57:00,
2013-06-26 09:02:00,71.3,48.9,29.89,WNW,299,2.0,7.0,45,0.00,,,0.00,Wunderground v.1.15,2013-06-26 16:02:00,
2013-06-26 09:07:00,71.5,48.4,29.89,WNW,302,0.0,7.0,44,0.00,,,0.00,Wunderground v.1.15,2013-06-26 16:07:00,
2013-06-26 09:12:00,71.8,48.7,29.89,NNE,17,0.0,1.0,44,0.00,,,0.00,Wunderground v.1.15,2013-06-26 16:12:00,
2013-06-26 09:17:00,72.3,47.9,29.89,WSW,240,0.0,2.0,42,0.00,,,0.00,Wunderground v.1.15,2013-06-26 16:17:00,
2013-06-26 09:22:00,72.5,48.1,29.89,WSW,240,1.0,4.0,42,0.00,,,0.00,Wunderground v.1.15,2013-06-26 16:22:00,
2013-06-26 09:27:00,72.8,48.4,29.89,ESE,119,0.0,6.0,42,0.00,,,0.00,Wunderground v.1.15,2013-06-26 16:27:00,
2013-06-26 09:32:00,73.2,48.7,29.88,ESE,119,0.0,6.0,42,0.00,,,0.00,Wunderground v.1.15,2013-06-26 16:32:00,
2013-06-26 09:37:00,73.2,49.4,29.88,WSW,243,2.0,6.0,43,0.00,,,0.00,Wunderground v.1.15,2013-06-26 16:37:00,
2013-06-26 09:42:00,73.3,48.8,29.88,ESE,103,0.0,1.0,42,0.00,,,0.00,Wunderground v.1.15,2013-06-26 16:42:00,
2013-06-26 09:47:00,73.5,48.4,29.88,West,261,1.0,8.0,41,0.00,,,0.00,Wunderground v.1.15,2013-06-26 16:47:00,
2013-06-26 09:52:00,73.7,48.5,29.88,SSE,157,4.0,13.0,41,0.00,,,0.00,Wunderground v.1.15,2013-06-26 16:52:00,
2013-06-26 09:57:00,73.9,49.4,29.88,ESE,121,4.0,13.0,42,0.00,,,0.00,Wunderground v.1.15,2013-06-26 16:57:00,
2013-06-26 10:02:00,74.2,49.0,29.87,WSW,256,0.0,8.0,41,0.00,,,0.00,Wunderground v.1.15,2013-06-26 17:02:00,
2013-06-26 10:07:00,74.6,48.0,29.87,SE,144,6.0,10.0,39,0.00,,,0.00,Wunderground v.1.15,2013-06-26 17:07:00,
2013-06-26 10:12:00,74.7,48.8,29.87,SE,137,1.0,10.0,40,0.00,,,0.00,Wunderground v.1.15,2013-06-26 17:12:00,
2013-06-26 10:17:00,74.9,48.3,29.88,South,176,0.0,10.0,39,0.00,,,0.00,Wunderground v.1.15,2013-06-26 17:17:00,
2013-06-26 10:22:00,75.1,48.4,29.88,South,171,0.0,10.0,39,0.00,,,0.00,Wunderground v.1.15,2013-06-26 17:22:00,
2013-06-26 10:27:00,75.3,49.3,29.88,SSW,198,0.0,10.0,40,0.00,,,0.00,Wunderground v.1.15,2013-06-26 17:27:00,
2013-06-26 10:32:00,75.8,48.4,29.87,SSE,162,14.0,14.0,38,0.00,,,0.00,Wunderground v.1.15,2013-06-26 17:32:00,
2013-06-26 10:37:00,76.3,48.1,29.87,ESE,120,8.0,14.0,37,0.00,,,0.00,Wunderground v.1.15,2013-06-26 17:37:00,
2013-06-26 10:42:00,77.0,48.7,29.87,SSE,165,10.0,14.0,37,0.00,,,0.00,Wunderground v.1.15,2013-06-26 17:42:00,
2013-06-26 10:47:00,77.4,48.3,29.87,SSE,158,8.0,14.0,36,0.00,,,0.00,Wunderground v.1.15,2013-06-26 17:47:00,
2013-06-26 10:52:00,77.6,47.8,29.87,South,189,9.0,14.0,35,0.00,,,0.00,Wunderground v.1.15,2013-06-26 17:52:00,
2013-06-26 10:57:00,77.9,48.0,29.87,ESE,116,18.0,18.0,35,0.00,,,0.00,Wunderground v.1.15,2013-06-26 17:57:00,
2013-06-26 11:02:00,78.1,48.2,29.86,SSE,152,7.0,18.0,35,0.00,,,0.00,Wunderground v.1.15,2013-06-26 18:02:00,
2013-06-26 11:07:00,78.3,48.4,29.86,ESE,103,17.0,22.0,35,0.00,,,0.00,Wunderground v.1.15,2013-06-26 18:07:00,
2013-06-26 11:12:00,78.5,48.6,29.86,SE,140,7.0,15.0,35,0.00,,,0.00,Wunderground v.1.15,2013-06-26 18:12:00,
2013-06-26 11:17:00,78.6,48.7,29.85,SE,136,16.0,17.0,35,0.00,,,0.00,Wunderground v.1.15,2013-06-26 18:17:00,
2013-06-26 11:22:00,78.8,48.8,29.85,South,175,13.0,14.0,35,0.00,,,0.00,Wunderground v.1.15,2013-06-26 18:22:00,
2013-06-26 11:24:00,78.8,46.4,29.85,SSE,155,14.0,17.0,32,0.00,,,0.00,Wunderground v.1.15,2013-06-26 18:24:00,
2013-06-26 11:29:00,78.6,46.3,29.85,South,184,9.0,17.0,32,0.00,,,0.00,Wunderground v.1.15,2013-06-26 18:29:00,
2013-06-26 11:34:00,78.8,45.6,29.86,South,182,4.0,15.0,31,0.00,,,0.00,Wunderground v.1.15,2013-06-26 18:34:00,
2013-06-26 11:39:00,79.2,45.9,29.86,SSW,209,6.0,21.0,31,0.00,,,0.00,Wunderground v.1.15,2013-06-26 18:39:00,
2013-06-26 11:44:00,79.4,45.3,29.86,SSE,161,10.0,17.0,30,0.00,,,0.00,Wunderground v.1.15,2013-06-26 18:44:00,
2013-06-26 11:49:00,79.9,45.7,29.85,SSE,158,9.0,17.0,30,0.00,,,0.00,Wunderground v.1.15,2013-06-26 18:49:00,
2013-06-26 11:54:00,80.5,44.4,29.85,ESE,110,10.0,20.0,28,0.00,,,0.00,Wunderground v.1.15,2013-06-26 18:54:00,
2013-06-26 11:59:00,80.7,44.6,29.85,South,181,8.0,20.0,28,0.00,,,0.00,Wunderground v.1.15,2013-06-26 18:59:00,
2013-06-26 12:05:00,81.1,44.9,29.84,SSE,168,9.0,20.0,28,0.00,,,0.00,Wunderground v.1.15,2013-06-26 19:05:00,
2013-06-26 12:10:00,81.4,44.2,29.84,South,175,10.0,14.0,27,0.00,,,0.00,Wunderground v.1.15,2013-06-26 19:10:00,
2013-06-26 12:15:00,81.6,44.4,29.85,SSE,154,9.0,17.0,27,0.00,,,0.00,Wunderground v.1.15,2013-06-26 19:15:00,
2013-06-26 12:20:00,82.0,43.7,29.85,SSE,162,7.0,15.0,26,0.00,,,0.00,Wunderground v.1.15,2013-06-26 19:20:00,
2013-06-26 12:25:00,82.2,43.9,29.85,South,188,9.0,17.0,26,0.00,,,0.00,Wunderground v.1.15,2013-06-26 19:25:00,
2013-06-26 12:30:00,82.6,45.2,29.84,ESE,107,13.0,21.0,27,0.00,,,0.00,Wunderground v.1.15,2013-06-26 19:30:00,
2013-06-26 12:35:00,82.8,44.4,29.84,SSE,160,8.0,21.0,26,0.00,,,0.00,Wunderground v.1.15,2013-06-26 19:35:00,
2013-06-26 12:40:00,83.2,43.7,29.84,SSE,168,10.0,13.0,25,0.00,,,0.00,Wunderground v.1.15,2013-06-26 19:40:00,
2013-06-26 12:46:00,83.6,45.1,29.85,SSW,193,9.0,20.0,26,0.00,,,0.00,Wunderground v.1.15,2013-06-26 19:46:00,
2013-06-26 12:50:00,83.6,43.0,29.85,SSE,157,8.0,16.0,24,0.00,,,0.00,Wunderground v.1.15,2013-06-26 19:50:00,
2013-06-26 12:56:00,83.6,43.0,29.85,SE,128,14.0,21.0,24,0.00,,,0.00,Wunderground v.1.15,2013-06-26 19:56:00,
2013-06-26 13:00:00,84.0,43.3,29.84,South,171,8.0,11.0,24,0.00,,,0.00,Wunderground v.1.15,2013-06-26 20:00:00,
2013-06-26 13:06:00,84.1,43.4,29.84,SSE,161,6.0,18.0,24,0.00,,,0.00,Wunderground v.1.15,2013-06-26 20:06:00,
2013-06-26 13:11:00,84.5,43.7,29.84,South,169,14.0,21.0,24,0.00,,,0.00,Wunderground v.1.15,2013-06-26 20:11:00,
2013-06-26 13:16:00,84.7,42.8,29.85,South,186,10.0,21.0,23,0.00,,,0.00,Wunderground v.1.15,2013-06-26 20:16:00,
2013-06-26 13:21:00,84.7,43.9,29.85,SSE,154,16.0,18.0,24,0.00,,,0.00,Wunderground v.1.15,2013-06-26 20:21:00,
2013-06-26 13:26:00,85.1,44.2,29.85,South,176,11.0,18.0,24,0.00,,,0.00,Wunderground v.1.15,2013-06-26 20:26:00,
2013-06-26 13:31:00,85.1,43.1,29.85,ESE,113,20.0,20.0,23,0.00,,,0.00,Wunderground v.1.15,2013-06-26 20:31:00,
2013-06-26 13:36:00,85.3,42.1,29.85,SE,131,10.0,20.0,22,0.00,,,0.00,Wunderground v.1.15,2013-06-26 20:36:00,
2013-06-26 13:41:00,85.5,42.3,29.85,SSE,151,13.0,16.0,22,0.00,,,0.00,Wunderground v.1.15,2013-06-26 20:41:00,
2013-06-26 13:46:00,85.7,43.6,29.85,ESE,106,0.0,17.0,23,0.00,,,0.00,Wunderground v.1.15,2013-06-26 20:46:00,
2013-06-26 13:51:00,86.1,44.0,29.85,SSW,208,9.0,13.0,23,0.00,,,0.00,Wunderground v.1.15,2013-06-26 20:51:00,
2013-06-26 13:56:00,86.1,42.8,29.85,SSE,161,13.0,20.0,22,0.00,,,0.00,Wunderground v.1.15,2013-06-26 20:56:00,
2013-06-26 14:01:00,86.1,42.8,29.85,South,185,10.0,15.0,22,0.00,,,0.00,Wunderground v.1.15,2013-06-26 21:01:00,
2013-06-26 14:06:00,86.3,43.0,29.85,SW,216,1.0,16.0,22,0.00,,,0.00,Wunderground v.1.15,2013-06-26 21:06:00,
2013-06-26 14:11:00,86.7,43.3,29.85,SE,143,18.0,18.0,22,0.00,,,0.00,Wunderground v.1.15,2013-06-26 21:11:00,
2013-06-26 14:16:00,87.0,42.3,29.83,SSW,192,9.0,18.0,21,0.00,,,0.00,Wunderground v.1.15,2013-06-26 21:16:00,
2013-06-26 14:21:00,87.0,43.6,29.83,SSW,196,0.0,9.0,22,0.00,,,0.00,Wunderground v.1.15,2013-06-26 21:21:00,
2013-06-26 14:26:00,87.2,43.7,29.83,ESE,109,4.0,11.0,22,0.00,,,0.00,Wunderground v.1.15,2013-06-26 21:26:00,
2013-06-26 14:31:00,87.8,40.4,29.83,South,174,8.0,11.0,19,0.00,,,0.00,Wunderground v.1.15,2013-06-26 21:31:00,
2013-06-26 14:36:00,88.0,43.2,29.83,SE,124,8.0,14.0,21,0.00,,,0.00,Wunderground v.1.15,2013-06-26 21:36:00,
2013-06-26 14:41:00,88.4,42.2,29.83,SSW,213,11.0,15.0,20,0.00,,,0.00,Wunderground v.1.15,2013-06-26 21:41:00,
2013-06-26 14:46:00,88.6,41.1,29.83,SSE,150,10.0,16.0,19,0.00,,,0.00,Wunderground v.1.15,2013-06-26 21:46:00,
2013-06-26 14:51:00,88.6,42.4,29.83,SE,141,7.0,15.0,20,0.00,,,0.00,Wunderground v.1.15,2013-06-26 21:51:00,
2013-06-26 14:56:00,88.8,41.2,29.83,South,169,1.0,15.0,19,0.00,,,0.00,Wunderground v.1.15,2013-06-26 21:56:00,
2013-06-26 15:01:00,88.8,42.6,29.82,South,184,2.0,14.0,20,0.00,,,0.00,Wunderground v.1.15,2013-06-26 22:01:00,
2013-06-26 15:06:00,89.0,44.0,29.82,SE,127,6.0,14.0,21,0.00,,,0.00,Wunderground v.1.15,2013-06-26 22:06:00,
2013-06-26 15:11:00,89.0,41.4,29.82,SSW,198,11.0,11.0,19,0.00,,,0.00,Wunderground v.1.15,2013-06-26 22:11:00,
2013-06-26 15:16:00,89.3,43.0,29.82,South,178,6.0,14.0,20,0.00,,,0.00,Wunderground v.1.15,2013-06-26 22:16:00,
2013-06-26 15:21:00,89.5,43.1,29.82,SSE,158,14.0,16.0,20,0.00,,,0.00,Wunderground v.1.15,2013-06-26 22:21:00,
2013-06-26 15:26:00,89.7,42.0,29.82,SE,144,10.0,18.0,19,0.00,,,0.00,Wunderground v.1.15,2013-06-26 22:26:00,
2013-06-26 15:31:00,89.7,43.3,29.81,SSE,164,4.0,11.0,20,0.00,,,0.00,Wunderground v.1.15,2013-06-26 22:31:00,
2013-06-26 15:36:00,89.9,42.1,29.81,South,174,9.0,15.0,19,0.00,,,0.00,Wunderground v.1.15,2013-06-26 22:36:00,
2013-06-26 15:41:00,89.7,42.0,29.81,South,171,10.0,18.0,19,0.00,,,0.00,Wunderground v.1.15,2013-06-26 22:41:00,
2013-06-26 15:46:00,89.5,43.1,29.81,East,93,9.0,18.0,20,0.00,,,0.00,Wunderground v.1.15,2013-06-26 22:46:00,
2013-06-26 15:51:00,89.5,41.8,29.81,SSE,150,9.0,16.0,19,0.00,,,0.00,Wunderground v.1.15,2013-06-26 22:51:00,
2013-06-26 15:56:00,89.5,41.8,29.81,SE,144,11.0,16.0,19,0.00,,,0.00,Wunderground v.1.15,2013-06-26 22:56:00,
2013-06-26 16:01:00,89.5,43.1,29.81,SE,136,7.0,11.0,20,0.00,,,0.00,Wunderground v.1.15,2013-06-26 23:01:00,
2013-06-26 16:06:00,89.5,41.8,29.81,South,186,7.0,16.0,19,0.00,,,0.00,Wunderground v.1.15,2013-06-26 23:06:00,
2013-06-26 16:11:00,89.7,42.0,29.81,South,181,13.0,17.0,19,0.00,,,0.00,Wunderground v.1.15,2013-06-26 23:11:00,
2013-06-26 16:16:00,89.7,40.6,29.81,SE,138,8.0,17.0,18,0.00,,,0.00,Wunderground v.1.15,2013-06-26 23:16:00,
2013-06-26 16:21:00,89.9,40.7,29.81,ESE,120,6.0,11.0,18,0.00,,,0.00,Wunderground v.1.15,2013-06-26 23:21:00,
2013-06-26 16:27:00,89.9,40.7,29.81,ESE,123,14.0,16.0,18,0.00,,,0.00,Wunderground v.1.15,2013-06-26 23:27:00,
2013-06-26 16:32:00,89.9,40.7,29.81,SSE,157,13.0,13.0,18,0.00,,,0.00,Wunderground v.1.15,2013-06-26 23:32:00,
2013-06-26 16:37:00,89.9,42.1,29.81,SE,145,15.0,17.0,19,0.00,,,0.00,Wunderground v.1.15,2013-06-26 23:37:00,
2013-06-26 16:42:00,89.7,39.1,29.81,South,185,10.0,15.0,17,0.00,,,0.00,Wunderground v.1.15,2013-06-26 23:42:00,
2013-06-26 16:47:00,89.3,38.8,29.81,SSW,195,0.0,17.0,17,0.00,,,0.00,Wunderground v.1.15,2013-06-26 23:47:00,
2013-06-26 16:52:00,89.5,41.8,29.81,SSE,151,1.0,9.0,19,0.00,,,0.00,Wunderground v.1.15,2013-06-26 23:52:00,
2013-06-26 16:57:00,90.1,43.6,29.81,SSW,195,10.0,14.0,20,0.00,,,0.00,Wunderground v.1.15,2013-06-26 23:57:00,
2013-06-26 17:02:00,89.9,42.1,29.81,ESE,112,10.0,18.0,19,0.00,,,0.00,Wunderground v.1.15,2013-06-27 00:02:00,
2013-06-26 17:07:00,89.5,43.1,29.81,SSW,213,6.0,18.0,20,0.00,,,0.00,Wunderground v.1.15,2013-06-27 00:07:00,
2013-06-26 17:12:00,89.0,41.4,29.81,SW,220,4.0,15.0,19,0.00,,,0.00,Wunderground v.1.15,2013-06-27 00:12:00,
2013-06-26 17:17:00,89.0,42.7,29.83,SW,220,4.0,16.0,20,0.00,,,0.00,Wunderground v.1.15,2013-06-27 00:17:00,
2013-06-26 17:22:00,88.8,42.6,29.83,SSE,167,15.0,15.0,20,0.00,,,0.00,Wunderground v.1.15,2013-06-27 00:22:00,
2013-06-26 17:27:00,88.6,42.4,29.83,ESE,114,0.0,15.0,20,0.00,,,0.00,Wunderground v.1.15,2013-06-27 00:27:00,
2013-06-26 17:32:00,88.6,42.4,29.83,SSE,157,11.0,17.0,20,0.00,,,0.00,Wunderground v.1.15,2013-06-27 00:32:00,
2013-06-26 17:37:00,88.2,42.1,29.83,SE,124,11.0,18.0,20,0.00,,,0.00,Wunderground v.1.15,2013-06-27 00:37:00,
2013-06-26 17:42:00,88.0,41.9,29.83,South,174,10.0,18.0,20,0.00,,,0.00,Wunderground v.1.15,2013-06-27 00:42:00,
2013-06-26 17:47:00,88.0,41.9,29.83,South,182,6.0,18.0,20,0.00,,,0.00,Wunderground v.1.15,2013-06-27 00:47:00,
2013-06-26 17:52:00,88.0,41.9,29.83,SW,230,8.0,16.0,20,0.00,,,0.00,Wunderground v.1.15,2013-06-27 00:52:00,
2013-06-26 17:57:00,87.8,41.7,29.83,SSE,152,11.0,16.0,20,0.00,,,0.00,Wunderground v.1.15,2013-06-27 00:57:00,
2013-06-26 18:02:00,87.4,41.4,29.83,SE,130,9.0,11.0,20,0.00,,,0.00,Wunderground v.1.15,2013-06-27 01:02:00,
2013-06-26 18:07:00,87.6,42.8,29.83,SW,233,10.0,11.0,21,0.00,,,0.00,Wunderground v.1.15,2013-06-27 01:07:00,
2013-06-26 18:13:00,87.8,40.4,29.83,South,184,2.0,10.0,19,0.00,,,0.00,Wunderground v.1.15,2013-06-27 01:13:00,
2013-06-26 18:18:00,87.6,40.2,29.82,WSW,247,1.0,14.0,19,0.00,,,0.00,Wunderground v.1.15,2013-06-27 01:18:00,
2013-06-26 18:23:00,87.6,40.2,29.82,SW,226,1.0,11.0,19,0.00,,,0.00,Wunderground v.1.15,2013-06-27 01:23:00,
2013-06-26 18:29:00,87.8,39.0,29.82,SSE,161,10.0,11.0,18,0.00,,,0.00,Wunderground v.1.15,2013-06-27 01:29:00,
2013-06-26 18:34:00,87.8,39.0,29.82,SW,232,2.0,11.0,18,0.00,,,0.00,Wunderground v.1.15,2013-06-27 01:34:00,
2013-06-26 18:39:00,87.8,39.0,29.82,SSE,168,2.0,11.0,18,0.00,,,0.00,Wunderground v.1.15,2013-06-27 01:39:00,
2013-06-26 18:44:00,87.8,39.0,29.82,SW,229,4.0,10.0,18,0.00,,,0.00,Wunderground v.1.15,2013-06-27 01:44:00,
2013-06-26 18:49:00,87.8,40.4,29.82,WNW,292,1.0,10.0,19,0.00,,,0.00,Wunderground v.1.15,2013-06-27 01:49:00,
2013-06-26 18:54:00,87.8,49.7,29.82,WNW,288,0.0,6.0,27,0.00,,,0.00,Wunderground v.1.15,2013-06-27 01:54:00,
2013-06-26 18:59:00,87.6,49.5,29.81,West,277,1.0,6.0,27,0.00,,,0.00,Wunderground v.1.15,2013-06-27 01:59:00,
2013-06-26 19:04:00,87.2,48.1,29.81,WNW,291,2.0,9.0,26,0.00,,,0.00,Wunderground v.1.15,2013-06-27 02:04:00,
2013-06-26 19:10:00,86.1,49.2,29.81,SW,233,1.0,2.0,28,0.00,,,0.00,Wunderground v.1.15,2013-06-27 02:10:00,
2013-06-26 19:15:00,85.5,48.7,29.78,WNW,294,1.0,8.0,28,0.00,,,0.00,Wunderground v.1.15,2013-06-27 02:15:00,
2013-06-26 19:20:00,84.9,50.0,29.78,WNW,301,0.0,6.0,30,0.00,,,0.00,Wunderground v.1.15,2013-06-27 02:20:00,
2013-06-26 19:25:00,84.3,49.5,29.78,WSW,254,1.0,7.0,30,0.00,,,0.00,Wunderground v.1.15,2013-06-27 02:25:00,
2013-06-26 19:30:00,83.0,50.1,29.80,NW,305,0.0,7.0,32,0.00,,,0.00,Wunderground v.1.15,2013-06-27 02:30:00,
2013-06-26 19:35:00,82.6,50.6,29.80,NW,309,0.0,7.0,33,0.00,,,0.00,Wunderground v.1.15,2013-06-27 02:35:00,
2013-06-26 19:40:00,82.4,50.4,29.80,NW,305,2.0,4.0,33,0.00,,,0.00,Wunderground v.1.15,2013-06-27 02:40:00,
2013-06-26 19:45:00,82.0,49.2,29.80,NW,309,0.0,6.0,32,0.00,,,0.00,Wunderground v.1.15,2013-06-27 02:45:00,
2013-06-26 19:50:00,82.0,49.2,29.80,NNW,347,0.0,1.0,32,0.00,,,0.00,Wunderground v.1.15,2013-06-27 02:50:00,
2013-06-26 19:55:00,80.9,52.9,29.80,NE,41,1.0,7.0,38,0.00,,,0.00,Wunderground v.1.15,2013-06-27 02:55:00,
2013-06-26 20:00:00,78.6,53.6,29.81,NE,41,4.0,6.0,42,0.00,,,0.00,Wunderground v.1.15,2013-06-27 03:00:00,
2013-06-26 20:05:00,76.3,52.2,29.81,NNE,25,4.0,7.0,43,0.00,,,0.00,Wunderground v.1.15,2013-06-27 03:05:00,
2013-06-26 20:10:00,75.3,51.3,29.81,NE,37,2.0,4.0,43,0.00,,,0.00,Wunderground v.1.15,2013-06-27 03:10:00,
2013-06-26 20:15:00,74.7,51.9,29.82,NE,38,1.0,6.0,45,0.00,,,0.00,Wunderground v.1.15,2013-06-27 03:15:00,
2013-06-26 20:20:00,73.7,52.2,29.82,NNE,27,6.0,6.0,47,0.00,,,0.00,Wunderground v.1.15,2013-06-27 03:20:00,
2013-06-26 20:25:00,72.7,51.9,29.82,NE,45,2.0,6.0,48,0.00,,,0.00,Wunderground v.1.15,2013-06-27 03:25:00,
2013-06-26 20:30:00,72.0,51.2,29.84,NE,52,0.0,2.0,48,0.00,,,0.00,Wunderground v.1.15,2013-06-27 03:30:00,
2013-06-26 20:35:00,71.5,50.2,29.84,NE,41,7.0,8.0,47,0.00,,,0.00,Wunderground v.1.15,2013-06-27 03:35:00,
2013-06-26 20:40:00,71.6,49.1,29.84,North,10,0.0,4.0,45,0.00,,,0.00,Wunderground v.1.15,2013-06-27 03:40:00,
2013-06-26 20:45:00,71.8,50.5,29.84,NE,49,0.0,4.0,47,0.00,,,0.00,Wunderground v.1.15,2013-06-27 03:45:00,
2013-06-26 20:51:00,71.3,50.0,29.84,ENE,68,0.0,1.0,47,0.00,,,0.00,Wunderground v.1.15,2013-06-27 03:51:00,
2013-06-26 20:56:00,71.1,49.3,29.84,ENE,62,1.0,6.0,46,0.00,,,0.00,Wunderground v.1.15,2013-06-27 03:56:00,
2013-06-26 21:01:00,71.1,49.3,29.85,ENE,62,0.0,1.0,46,0.00,,,0.00,Wunderground v.1.15,2013-06-27 04:01:00,
2013-06-26 21:02:00,71.1,49.3,29.85,ENE,62,0.0,1.0,46,0.00,,,0.00,Wunderground v.1.15,2013-06-27 04:02:00,
2013-06-26 21:07:00,70.9,49.7,29.85,ENE,64,0.0,1.0,47,0.00,,,0.00,Wunderground v.1.15,2013-06-27 04:07:00,
2013-06-26 21:12:00,70.6,48.8,29.85,ENE,64,1.0,4.0,46,0.00,,,0.00,Wunderground v.1.15,2013-06-27 04:12:00,
2013-06-26 21:17:00,70.3,49.1,29.85,ENE,69,4.0,6.0,47,0.00,,,0.00,Wunderground v.1.15,2013-06-27 04:17:00,
2013-06-26 21:22:00,70.3,48.5,29.85,NE,54,2.0,7.0,46,0.00,,,0.00,Wunderground v.1.15,2013-06-27 04:22:00,
2013-06-26 21:27:00,70.4,48.6,29.85,NE,48,6.0,7.0,46,0.00,,,0.00,Wunderground v.1.15,2013-06-27 04:27:00,
2013-06-26 21:32:00,70.4,48.6,29.85,NE,38,0.0,6.0,46,0.00,,,0.00,Wunderground v.1.15,2013-06-27 04:32:00,
2013-06-26 21:37:00,70.1,48.4,29.85,NE,40,0.0,6.0,46,0.00,,,0.00,Wunderground v.1.15,2013-06-27 04:37:00,
2013-06-26 21:42:00,70.1,48.4,29.85,NE,55,4.0,4.0,46,0.00,,,0.00,Wunderground v.1.15,2013-06-27 04:42:00,
2013-06-26 21:47:00,69.6,48.5,29.87,ENE,58,1.0,4.0,47,0.00,,,0.00,Wunderground v.1.15,2013-06-27 04:47:00,
2013-06-26 21:52:00,69.4,48.3,29.87,NE,40,6.0,8.0,47,0.00,,,0.00,Wunderground v.1.15,2013-06-27 04:52:00,
2013-06-26 21:57:00,69.1,48.6,29.87,NE,47,2.0,8.0,48,0.00,,,0.00,Wunderground v.1.15,2013-06-27 04:57:00,
2013-06-26 22:02:00,68.8,49.4,29.88,NE,35,4.0,6.0,50,0.00,,,0.00,Wunderground v.1.15,2013-06-27 05:02:00,
2013-06-26 22:07:00,68.1,50.3,29.88,NE,38,4.0,6.0,53,0.00,,,0.00,Wunderground v.1.15,2013-06-27 05:07:00,
2013-06-26 22:12:00,67.4,51.6,29.88,NNE,30,6.0,6.0,57,0.00,,,0.00,Wunderground v.1.15,2013-06-27 05:12:00,
2013-06-26 22:17:00,66.9,51.6,29.88,NE,34,4.0,6.0,58,0.00,,,0.00,Wunderground v.1.15,2013-06-27 05:17:00,
2013-06-26 22:22:00,66.9,51.2,29.88,NE,42,0.0,4.0,57,0.00,,,0.00,Wunderground v.1.15,2013-06-27 05:22:00,
2013-06-26 22:27:00,67.1,49.4,29.88,NE,40,1.0,7.0,53,0.00,,,0.00,Wunderground v.1.15,2013-06-27 05:27:00,
2013-06-26 22:32:00,67.1,49.4,29.89,NE,40,0.0,2.0,53,0.00,,,0.00,Wunderground v.1.15,2013-06-27 05:32:00,
2013-06-26 22:37:00,66.9,49.2,29.89,NE,40,0.0,2.0,53,0.00,,,0.00,Wunderground v.1.15,2013-06-27 05:37:00,
2013-06-26 22:42:00,66.8,48.6,29.89,NE,40,0.0,2.0,52,0.00,,,0.00,Wunderground v.1.15,2013-06-27 05:42:00,
2013-06-26 22:47:00,66.6,47.9,29.89,NE,54,0.0,2.0,51,0.00,,,0.00,Wunderground v.1.15,2013-06-27 05:47:00,
2013-06-26 22:52:00,66.4,48.2,29.89,NE,54,0.0,1.0,52,0.00,,,0.00,Wunderground v.1.15,2013-06-27 05:52:00,
2013-06-26 22:57:00,66.4,48.2,29.89,NE,54,0.0,1.0,52,0.00,,,0.00,Wunderground v.1.15,2013-06-27 05:57:00,
2013-06-26 23:02:00,66.3,47.6,29.89,NE,54,0.0,1.0,51,0.00,,,0.00,Wunderground v.1.15,2013-06-27 06:02:00,
2013-06-26 23:07:00,66.1,47.4,29.89,NE,54,0.0,1.0,51,0.00,,,0.00,Wunderground v.1.15,2013-06-27 06:07:00,
2013-06-26 23:13:00,66.0,47.3,29.89,NE,54,0.0,2.0,51,0.00,,,0.00,Wunderground v.1.15,2013-06-27 06:13:00,
2013-06-26 23:18:00,65.8,46.6,29.88,NE,54,0.0,2.0,50,0.00,,,0.00,Wunderground v.1.15,2013-06-27 06:18:00,
2013-06-26 23:23:00,65.5,46.4,29.88,NE,54,0.0,1.0,50,0.00,,,0.00,Wunderground v.1.15,2013-06-27 06:23:00,
2013-06-26 23:28:00,65.2,46.6,29.88,NE,54,0.0,1.0,51,0.00,,,0.00,Wunderground v.1.15,2013-06-27 06:28:00,
2013-06-26 23:33:00,64.8,46.8,29.89,NE,54,0.0,0.0,52,0.00,,,0.00,Wunderground v.1.15,2013-06-27 06:33:00,
2013-06-26 23:38:00,64.5,46.5,29.89,NE,54,0.0,0.0,52,0.00,,,0.00,Wunderground v.1.15,2013-06-27 06:38:00,
2013-06-26 23:43:00,64.2,46.7,29.89,NE,54,0.0,0.0,53,0.00,,,0.00,Wunderground v.1.15,2013-06-27 06:43:00,
2013-06-26 23:49:00,63.9,47.4,29.90,NE,54,1.0,1.0,55,0.00,,,0.00,Wunderground v.1.15,2013-06-27 06:49:00,
2013-06-26 23:54:00,63.7,47.7,29.90,NE,54,0.0,1.0,56,0.00,,,0.00,Wunderground v.1.15,2013-06-27 06:54:00,
2013-06-26 23:59:00,63.2,47.7,29.90,NE,54,0.0,1.0,57,0.00,,,0.00,Wunderground v.1.15,2013-06-27 06:59:00,